Home   Weather   Washington Monument   Past weeks
Flag for USA

Past Weather in Washington Monument, Maryland, USA — Yesterday and Last 2 Weeks

Now
76 °F

More clouds than sun.


Feels Like: 78 °F
Forecast: 78 / 70 °F
Wind: 3 mph from West

Location: Baltimore-Washington International Airport

Current Time: Jul 23, 2019 at 4:44:53 pm

Latest Report: Jul 23, 2019 at 3:54 pm


Visibility: 10 mi

Pressure: 29.86 "Hg

Humidity: 69%

Dew Point: 65 °F

Location of Washington MonumentLocation

Past Weather in Washington Monument — Graph

°F

Washington Monument Temperature Yesterday

Maximum temperature yesterday: 94 °F (at 12:54 pm)
Minimum temperature yesterday: 73 °F (at 11:54 pm)
Average temperature yesterday: 82 °F

High & Low Weather Summary for the Past Weeks

 TemperatureHumidityPressure
High99 °F (Jul 21, 4:54 pm)100% (Jul 12, 5:54 am)30.11 "Hg (Jul 12, 5:54 am)
Low65 °F (Jul 9, 2:54 am)36% (Jul 15, 2:54 pm)29.73 "Hg (Jul 23, 1:54 am)
Average81 °F70%29.92 "Hg
* Reported Jul 8 2:09 pm — Jul 23 2:54 pm, Washington Monument. Weather by CustomWeather, © 2019

Note: Actual official high and low records may vary slightly from our data, if they occured in-between our weather recording intervals... More about our weather records

Advertising

Washington Monument Weather History for the Previous 24 Hours

Scroll right to see more
 ConditionsComfort  
Time TempWeatherWind HumidityBarometerVisibility
2:54 pm
Tue, Jul 23
77 °FCloudy.5 mph66%29.87 "Hg10 mi
1:54 pm75 °FCloudy.5 mph71%29.88 "Hg10 mi
12:54 pm75 °FMostly cloudy.7 mph74%29.87 "Hg10 mi
11:54 am74 °FCloudy.5 mph76%29.88 "Hg10 mi
10:54 am70 °FLight rain. Cloudy.5 mph93%29.87 "Hg10 mi
9:54 am70 °FLight rain. Cloudy.6 mph90%29.88 "Hg10 mi
8:54 am70 °FLight rain. Mostly cloudy.7 mph90%29.89 "Hg10 mi
7:54 am69 °FLight rain. Cloudy.7 mph93%29.87 "Hg10 mi
6:54 am69 °FLight rain. Cloudy.6 mph93%29.85 "Hg10 mi
5:54 am68 °FLight rain. Overcast.8 mph93%29.83 "Hg10 mi
4:54 am69 °FLight rain. Overcast.9 mph90%29.79 "Hg10 mi
3:54 am68 °FPartly cloudy.12 mph93%29.77 "Hg10 mi
3:18 am68 °FLight rain. Fog.12 mph96%29.77 "Hg6 mi
2:54 am68 °FHeavy rain. Fog.6 mph96%29.74 "Hg3 mi
2:37 am69 °FHeavy rain. Fog.16 mph96%29.74 "Hg1 mi
1:54 am74 °FPartly cloudy.7 mph91%29.73 "Hg10 mi
12:54 am73 °FPartly cloudy.3 mph94%29.76 "Hg10 mi
11:54 pm
Mon, Jul 22
73 °FPartly cloudy.3 mph90%29.78 "Hg10 mi
10:54 pm75 °FPartly cloudy.12 mph85%29.78 "Hg10 mi
9:54 pm75 °FPartly cloudy.5 mph82%29.76 "Hg10 mi
8:54 pm80 °FPartly cloudy.No wind74%29.77 "Hg10 mi
7:54 pm81 °FBroken clouds.6 mph72%29.77 "Hg10 mi
6:54 pm79 °FMostly cloudy.8 mph74%29.75 "Hg10 mi
5:54 pm80 °FPartly sunny.8 mph71%29.75 "Hg10 mi
4:54 pm79 °FBroken clouds.13 mph74%29.74 "Hg10 mi
4:14 pm79 °FBroken clouds.20 mph79%29.77 "Hg10 mi
Weather by CustomWeather, © 2019

See weather overview